McConnell AFB, KS

6:59 AM CST on November 18, 2017 (GMT -0600)
McConnell Air Force Base

Weather History for KIAB - June, 2013

Change the Weather History Date:

Friday, June 21, 2013

  Actual Average Record
Temperature  
Mean Temperature 85 °F -  
Max Temperature 94 °F 83 °F 95 °F (2016)
Min Temperature 77 °F 64 °F 62 °F (2001)
Cooling Degree Days 20    
Growing Degree Days 35 (Base 50)    
Moisture  
Dew Point 71 °F    
Average Humidity 64    
Maximum Humidity 78    
Minimum Humidity 47    
Precipitation  
Precipitation 0.00 in - - ()
Sea Level Pressure  
Sea Level Pressure 29.91 in    
Wind  
Wind Speed 20 mph (SSE)    
Max Wind Speed 25 mph    
Max Gust Speed 40 mph    
Visibility 10 miles    
Events      
Averages and records for this station are not official NWS values.
T = Trace of Precipitation, MM = Missing Value Source: NWS Daily Summary

Daily Weather History Graph

Daily Weather History Graph

Search for Another Location

Airport or City:

Trip Planner

Search our weather history database for the weather conditions in past years. The results will help you decide how hot, cold, wet, or windy it might be!

Date:

Astronomy

Jun. 21, 2013 Rise Set
Actual Time 6:07 AM CDT 8:53 PM CDT
Civil Twilight 5:36 AM CDT 9:25 PM CDT
Nautical Twilight 4:57 AM CDT 10:04 PM CDT
Astronomical Twilight 4:13 AM CDT 10:48 PM CDT
Moon 7:07 PM CDT (6/21) 4:22 AM CDT (6/21)
Length of Visible Light 15h 48m
Length of Day
14h 46m
Waxing Gibbous, 95% of the Moon is Illuminated
Jun 21
Waxing Gibbous
Jun 23
Full
Jun 29
Last Quarter
Jul 8
New
Jul 15
First Quarter

Hourly Weather History & Observations

Time (CDT) Temp. Heat Index Dew Point Humidity Pressure Visibility Wind Dir Wind Speed Gust Speed Precip Events Conditions
12:58 AM 79.9 °F - 72.5 °F 78% 29.94 in 10.0 mi SSE 19.6 mph - N/A   Clear
1:58 AM 79.9 °F - 70.3 °F 73% 29.93 in 10.0 mi SSE 19.6 mph 27.6 mph N/A   Clear
2:58 AM 79.5 °F - 69.8 °F 72% 29.92 in 10.0 mi SSE 21.9 mph 28.8 mph N/A   Clear
3:58 AM 79.3 °F - 69.3 °F 71% 29.87 in 10.0 mi SSE 20.7 mph 29.9 mph N/A   Partly Cloudy
4:58 AM 78.8 °F - 68.9 °F 72% 29.88 in 10.0 mi South 20.7 mph 27.6 mph N/A   Mostly Cloudy
5:58 AM 77.9 °F - 68.7 °F 73% 29.90 in 10.0 mi SSE 17.3 mph 24.2 mph N/A   Scattered Clouds
6:58 AM 77.7 °F - 68.9 °F 74% 29.90 in 10.0 mi SSE 20.7 mph 29.9 mph N/A   Clear
7:58 AM 78.6 °F - 69.8 °F 74% 29.91 in 10.0 mi South 17.3 mph - N/A   Clear
8:58 AM 81.3 °F 85.4 °F 71.2 °F 71% 29.92 in 10.0 mi South 17.3 mph - N/A   Clear
9:58 AM 83.7 °F 88.6 °F 71.1 °F 66% 29.92 in 10.0 mi South 17.3 mph 26.5 mph N/A   Partly Cloudy
10:28 AM 86.0 °F 91.8 °F 71.6 °F 62% 29.96 in 10.0 mi SW 18.4 mph 23.0 mph N/A   Clear
10:29 AM 86.0 °F 91.8 °F 71.6 °F 62% 29.96 in 10.0 mi SW 16.1 mph 23.0 mph N/A   Clear
10:46 AM 86.0 °F 91.8 °F 71.6 °F 62% 29.96 in 10.0 mi South 23.0 mph 29.9 mph N/A   Clear
10:47 AM 86.0 °F 91.8 °F 71.6 °F 62% 29.96 in 10.0 mi South 25.3 mph 31.1 mph N/A   Clear
10:48 AM 86.0 °F 91.8 °F 71.6 °F 62% 29.96 in 10.0 mi South 25.3 mph 31.1 mph N/A   Clear
10:49 AM 86.0 °F 91.8 °F 71.6 °F 62% 29.96 in 10.0 mi South 25.3 mph 31.1 mph N/A   Clear
10:58 AM 86.2 °F 92.2 °F 71.8 °F 62% 29.92 in 10.0 mi South 21.9 mph 31.1 mph N/A   Partly Cloudy
11:58 AM 88.2 °F 94.1 °F 71.2 °F 57% 29.92 in 10.0 mi South 24.2 mph 29.9 mph N/A   Scattered Clouds
12:58 PM 89.4 °F 95.3 °F 70.9 °F 54% 29.91 in 10.0 mi South 20.7 mph 32.2 mph N/A   Scattered Clouds
1:58 PM 93.2 °F 99.9 °F 70.9 °F 48% 29.90 in 10.0 mi South 23.0 mph 29.9 mph N/A   Mostly Cloudy
2:58 PM 93.4 °F 99.7 °F 70.7 °F 47% 29.88 in 10.0 mi SSE 25.3 mph 36.8 mph N/A   Scattered Clouds
3:58 PM 90.9 °F 97.3 °F 70.9 °F 52% 29.86 in 10.0 mi SSE 24.2 mph 32.2 mph N/A   Scattered Clouds
4:58 PM 92.8 °F 99.2 °F 70.7 °F 48% 29.84 in 10.0 mi SSE 25.3 mph 40.3 mph N/A   Partly Cloudy
5:58 PM 90.7 °F 99.0 °F 73.0 °F 56% 29.85 in 10.0 mi SSE 25.3 mph 33.4 mph N/A   Clear
6:58 PM 88.3 °F 95.0 °F 72.0 °F 58% 29.86 in 10.0 mi SSE 19.6 mph 29.9 mph N/A   Clear
7:58 PM 86.5 °F 93.8 °F 73.0 °F 64% 29.88 in 10.0 mi SSE 15.0 mph 23.0 mph N/A   Clear
8:58 PM 85.1 °F 92.6 °F 73.8 °F 69% 29.88 in 10.0 mi SSE 16.1 mph - N/A   Clear
9:53 PM 84.2 °F 90.9 °F 73.4 °F 70% 29.92 in 10.0 mi SSE 17.3 mph - N/A   Scattered Clouds
9:58 PM 83.7 °F 90.4 °F 73.9 °F 72% 29.88 in 10.0 mi SSE 16.1 mph - N/A   Partly Cloudy
10:58 PM 82.2 °F 86.6 °F 71.2 °F 69% 29.90 in 10.0 mi SSE 21.9 mph 25.3 mph N/A   Mostly Cloudy
11:58 PM 81.0 °F 84.9 °F 71.2 °F 72% 29.92 in 10.0 mi SSE 20.7 mph 27.6 mph N/A   Mostly Cloudy